EXS2AC EGNM-LGSK

Flight info

Callsign EXS2AC
Flight time N/A
Altitude 37000
Route LAMIX L603 DOLAS DCT NAVPI DCT DODEN DCT NEGIX DCT DINKU M867 XERUM DCT BAVAX DCT RADIZ DCT DOL DCT MONID DCT IDASI DCT EDALA DCT SOLGU DCT OSLUD DCT MEDUX UM867 KOGAT DCT ERANA UL737 TSL UL617 IBIDI
Aircraft B738/M-SDE2E3FGHIRWXY/LB1

Departure

Time N/A
Airport Leeds Bradford Airport (EGNM)

Arrival

Time 2026-05-05 12:39
Airport Skiathos Island National Airport (LGSK)
Time Latitude Longitude Altitude Speed Heading
2026-05-05 12:12 40.89746 22.52423 30150 ft 470 kts 141°
2026-05-05 12:12 40.87205 22.55138 29458 ft 470 kts 141°
2026-05-05 12:13 40.84659 22.57856 28779 ft 471 kts 140°
2026-05-05 12:13 40.82117 22.60566 28339 ft 465 kts 140°
2026-05-05 12:13 40.79619 22.63227 27960 ft 459 kts 140°
2026-05-05 12:13 40.77143 22.65861 27557 ft 454 kts 140°
2026-05-05 12:14 40.74697 22.68460 27160 ft 450 kts 140°
2026-05-05 12:14 40.72274 22.71033 26771 ft 445 kts 140°
2026-05-05 12:14 40.69872 22.73581 26341 ft 442 kts 140°
2026-05-05 12:14 40.67487 22.76109 25918 ft 439 kts 140°
2026-05-05 12:15 40.65150 22.78585 25521 ft 436 kts 140°
2026-05-05 12:15 40.62793 22.81079 25110 ft 433 kts 140°
2026-05-05 12:15 40.60450 22.83555 24706 ft 430 kts 140°
2026-05-05 12:15 40.58124 22.86012 24309 ft 428 kts 140°
2026-05-05 12:16 40.55812 22.88452 23920 ft 425 kts 140°
2026-05-05 12:16 40.53506 22.90884 23524 ft 423 kts 140°
2026-05-05 12:16 40.51217 22.93296 23065 ft 421 kts 140°
2026-05-05 12:16 40.48940 22.95692 22607 ft 418 kts 140°
2026-05-05 12:17 40.46658 22.98032 22219 ft 415 kts 144°
2026-05-05 12:17 40.44183 22.99938 21843 ft 411 kts 155°
2026-05-05 12:17 40.41539 23.01315 21492 ft 407 kts 160°
2026-05-05 12:17 40.38898 23.02593 21133 ft 403 kts 160°
2026-05-05 12:18 40.36277 23.03855 20779 ft 399 kts 160°
2026-05-05 12:18 40.33685 23.05114 20432 ft 395 kts 159°
2026-05-05 12:18 40.31122 23.06373 20087 ft 392 kts 159°
2026-05-05 12:18 40.28584 23.07627 19745 ft 388 kts 159°
2026-05-05 12:19 40.26068 23.08876 19409 ft 385 kts 159°
2026-05-05 12:19 40.23575 23.10114 19078 ft 382 kts 159°
2026-05-05 12:19 40.21104 23.11341 18760 ft 378 kts 159°
2026-05-05 12:19 40.18654 23.12557 18436 ft 375 kts 159°
2026-05-05 12:20 40.16326 23.13711 18093 ft 373 kts 159°
2026-05-05 12:20 40.13909 23.14908 17724 ft 370 kts 159°
2026-05-05 12:20 40.11514 23.16092 17354 ft 367 kts 159°
2026-05-05 12:20 40.09133 23.17268 16989 ft 365 kts 158°
2026-05-05 12:21 40.06769 23.18435 16629 ft 362 kts 158°
2026-05-05 12:21 40.04416 23.19595 16276 ft 360 kts 158°
2026-05-05 12:21 40.02081 23.20746 15925 ft 358 kts 158°
2026-05-05 12:21 39.99761 23.21889 15582 ft 356 kts 158°
2026-05-05 12:22 39.97451 23.23027 15233 ft 354 kts 158°
2026-05-05 12:22 39.95152 23.24158 14896 ft 352 kts 158°
2026-05-05 12:22 39.92869 23.25280 14559 ft 350 kts 158°
2026-05-05 12:22 39.90595 23.26396 14226 ft 348 kts 158°
2026-05-05 12:23 39.88333 23.27500 13897 ft 347 kts 158°
2026-05-05 12:23 39.86077 23.28596 13533 ft 345 kts 158°
2026-05-05 12:23 39.83834 23.29686 13164 ft 343 kts 158°
2026-05-05 12:23 39.81603 23.30769 12799 ft 341 kts 158°
2026-05-05 12:24 39.79383 23.31848 12445 ft 339 kts 158°
2026-05-05 12:24 39.77183 23.32916 12140 ft 336 kts 158°
2026-05-05 12:24 39.75006 23.33971 11876 ft 331 kts 158°
2026-05-05 12:24 39.72865 23.35009 11616 ft 326 kts 158°
2026-05-05 12:25 39.70758 23.36036 11357 ft 321 kts 158°
2026-05-05 12:25 39.68678 23.37054 11111 ft 317 kts 158°
2026-05-05 12:25 39.66627 23.38058 10864 ft 313 kts 158°
2026-05-05 12:25 39.64601 23.39048 10616 ft 309 kts 158°
2026-05-05 12:26 39.62627 23.40013 10379 ft 306 kts 158°
2026-05-05 12:26 39.60646 23.40980 10134 ft 303 kts 158°
2026-05-05 12:26 39.58684 23.41937 9891 ft 300 kts 158°
2026-05-05 12:26 39.56738 23.42886 9621 ft 298 kts 158°
2026-05-05 12:27 39.54806 23.43827 9382 ft 296 kts 158°
2026-05-05 12:27 39.52884 23.44763 9111 ft 295 kts 158°
2026-05-05 12:27 39.50968 23.45696 8850 ft 294 kts 158°
2026-05-05 12:27 39.49056 23.46627 8596 ft 293 kts 159°
2026-05-05 12:28 39.47148 23.47554 8345 ft 293 kts 159°
2026-05-05 12:28 39.45237 23.48483 8094 ft 293 kts 159°
2026-05-05 12:28 39.43322 23.49412 7846 ft 294 kts 159°
2026-05-05 12:28 39.41407 23.50340 7601 ft 294 kts 159°
2026-05-05 12:29 39.39487 23.51269 7356 ft 295 kts 159°
2026-05-05 12:29 39.37569 23.52196 7106 ft 295 kts 159°
2026-05-05 12:29 39.35644 23.53125 6861 ft 295 kts 159°
2026-05-05 12:29 39.33722 23.54052 6622 ft 295 kts 159°
2026-05-05 12:30 39.31801 23.54979 6375 ft 295 kts 159°
2026-05-05 12:30 39.29876 23.55908 6115 ft 295 kts 160°
2026-05-05 12:30 39.27959 23.56831 5861 ft 294 kts 160°
2026-05-05 12:30 39.26044 23.57754 5608 ft 293 kts 160°
2026-05-05 12:31 39.24139 23.58672 5358 ft 292 kts 160°
2026-05-05 12:31 39.22243 23.59584 5110 ft 290 kts 160°
2026-05-05 12:31 39.20356 23.60491 4862 ft 288 kts 160°
2026-05-05 12:31 39.18440 23.61167 4654 ft 284 kts 180°
2026-05-05 12:32 39.16559 23.60660 4548 ft 273 kts 207°
2026-05-05 12:32 39.14881 23.59582 4401 ft 266 kts 210°
2026-05-05 12:32 39.13250 23.58495 4204 ft 262 kts 210°
2026-05-05 12:32 39.11644 23.57423 4012 ft 258 kts 210°
2026-05-05 12:33 39.10071 23.56382 3852 ft 249 kts 210°
2026-05-05 12:33 39.08559 23.55390 3685 ft 238 kts 210°
2026-05-05 12:33 39.07119 23.54449 3501 ft 227 kts 210°
2026-05-05 12:33 39.05743 23.53551 3301 ft 217 kts 210°
2026-05-05 12:34 39.04427 23.52693 3096 ft 208 kts 210°
2026-05-05 12:34 39.03163 23.51864 2893 ft 200 kts 212°
2026-05-05 12:34 39.02210 23.50669 2623 ft 189 kts 250°
2026-05-05 12:34 39.02049 23.49073 2397 ft 177 kts 281°
2026-05-05 12:35 39.02523 23.47686 2230 ft 165 kts 310°
2026-05-05 12:35 39.03415 23.46844 2085 ft 160 kts 336°
2026-05-05 12:35 39.04507 23.46607 2025 ft 165 kts
2026-05-05 12:35 39.05643 23.46885 2015 ft 166 kts
2026-05-05 12:36 39.06766 23.47188 2001 ft 162 kts
2026-05-05 12:36 39.07811 23.47476 1954 ft 152 kts
2026-05-05 12:36 39.08839 23.47760 1819 ft 149 kts
2026-05-05 12:36 39.09853 23.48042 1677 ft 150 kts
2026-05-05 12:37 39.10877 23.48327 1462 ft 151 kts
2026-05-05 12:37 39.11905 23.48590 1237 ft 150 kts
2026-05-05 12:37 39.12942 23.48805 920 ft 151 kts
2026-05-05 12:37 39.13974 23.48927 663 ft 145 kts
2026-05-05 12:38 39.14966 23.49127 469 ft 144 kts 15°
2026-05-05 12:38 39.15919 23.49541 278 ft 143 kts 21°
2026-05-05 12:38 39.16826 23.49973 93 ft 135 kts 20°
2026-05-05 12:38 39.17658 23.50342 41 ft 97 kts 19°
2026-05-05 12:39 39.18032 23.50510 47 ft 36 kts 18°
2026-05-05 12:39 39.18195 23.50591 53 ft 5 kts 25°
2026-05-05 12:39 39.18205 23.50587 54 ft 1 kts 321°
2026-05-05 12:39 39.18201 23.50579 48 ft 2 kts 218°
2026-05-05 12:40 39.18153 23.50565 49 ft 12 kts 193°
2026-05-05 12:40 39.18041 23.50518 47 ft 21 kts 200°
2026-05-05 12:40 39.17934 23.50426 41 ft 15 kts 249°
2026-05-05 12:40 39.17924 23.50348 39 ft 8 kts 289°
2026-05-05 12:41 39.17932 23.50319 38 ft 0 kts 289°
2026-05-05 12:41 39.17935 23.50308 38 ft 3 kts 289°
2026-05-05 12:41 39.17944 23.50276 38 ft 5 kts 290°
2026-05-05 12:41 39.17950 23.50253 36 ft 0 kts 288°
2026-05-05 13:43 39.17948 23.50260 38 ft 2 kts 288°
2026-05-05 13:43 39.17942 23.50284 38 ft 3 kts 288°
2026-05-05 13:43 39.17936 23.50307 34 ft 3 kts 288°
2026-05-05 13:43 39.17932 23.50330 35 ft 3 kts 251°
2026-05-05 13:44 39.17942 23.50348 37 ft 3 kts 210°